Location: Unspecified
(0.0000°N, 0.0000°E)
Time: 20:58:13
(UTC+00:00)

Hubble Space Telescope - Pass Details

Date: 18 June 2019
Orbit: 536 x 540 km, 28.5° (Epoch: 26 June)

Event Time Altitude Azimuth Distance (km) Brightness Sun altitude
Rises 19:03:13 0° 221° (SW) 2,681 4.6 -14.2°
Reaches altitude 10° 19:05:46 10° 208° (SSW) 1,788 3.5 -14.8°
Maximum altitude 19:09:15 26° 151° (SSE) 1,081 1.9 -15.6°
Enters shadow 19:09:33 26° 143° (SE) 1,088 1.8 -15.6°
